TimeMST,TemperatureF,Dew PointF,Humidity,Sea Level PressureIn,VisibilityMPH,Wind Direction,Wind SpeedMPH,Gust SpeedMPH,PrecipitationIn,Events,Conditions,WindDirDegrees,DateUTC
12:35 AM,-7.6,-14.8,71,30.24,10.0,South,3.5,-,N/A,,Partly Cloudy,170,2014-01-06 07:35:00
12:55 AM,-7.6,-11.2,84,30.25,10.0,South,4.6,-,N/A,,Mostly Cloudy,190,2014-01-06 07:55:00
1:15 AM,-7.6,-11.2,84,30.24,10.0,Calm,Calm,-,N/A,,Mostly Cloudy,0,2014-01-06 08:15:00
1:35 AM,-7.6,-9.4,92,30.25,10.0,Calm,Calm,-,N/A,,Partly Cloudy,0,2014-01-06 08:35:00
1:55 AM,-7.6,-11.2,84,30.25,10.0,Calm,Calm,-,N/A,,Clear,0,2014-01-06 08:55:00
2:15 AM,-7.6,-11.2,84,30.25,10.0,Calm,Calm,-,N/A,,Clear,0,2014-01-06 09:15:00
2:35 AM,-7.6,-11.2,84,30.25,10.0,Calm,Calm,-,N/A,,Clear,0,2014-01-06 09:35:00
2:55 AM,-9.4,-14.8,77,30.24,10.0,South,3.5,-,N/A,,Clear,180,2014-01-06 09:55:00
3:15 AM,-7.6,-11.2,84,30.24,10.0,South,3.5,-,N/A,,Clear,180,2014-01-06 10:15:00
3:35 AM,-7.6,-9.4,92,30.24,10.0,Calm,Calm,-,N/A,,Clear,0,2014-01-06 10:35:00
3:55 AM,-7.6,-13.0,77,30.23,10.0,South,3.5,-,N/A,,Clear,170,2014-01-06 10:55:00
4:15 AM,-7.6,-9.4,92,30.23,10.0,Calm,Calm,-,N/A,,Clear,0,2014-01-06 11:15:00
4:55 AM,-7.6,-11.2,84,30.23,10.0,Calm,Calm,-,N/A,,Clear,0,2014-01-06 11:55:00
5:15 AM,-7.6,-11.2,84,30.23,10.0,Calm,Calm,-,N/A,,Clear,0,2014-01-06 12:15:00
5:35 AM,-7.6,-9.4,92,30.22,10.0,Calm,Calm,-,N/A,,Clear,0,2014-01-06 12:35:00
5:55 AM,-7.6,-11.2,84,30.21,10.0,Calm,Calm,-,N/A,,Clear,0,2014-01-06 12:55:00
6:15 AM,-5.8,-7.6,92,30.20,10.0,North,3.5,-,N/A,,Clear,10,2014-01-06 13:15:00
6:35 AM,-7.6,-11.2,84,30.21,10.0,NE,5.8,-,N/A,,Clear,40,2014-01-06 13:35:00
6:55 AM,-7.6,-9.4,92,30.21,10.0,Calm,Calm,-,N/A,,Scattered Clouds,0,2014-01-06 13:55:00
7:15 AM,-7.6,-7.6,100,30.22,10.0,NE,4.6,-,N/A,,Overcast,40,2014-01-06 14:15:00
7:55 AM,-5.8,-7.6,92,30.21,10.0,Calm,Calm,-,N/A,,Overcast,0,2014-01-06 14:55:00
8:15 AM,-5.8,-7.6,92,30.22,10.0,Calm,Calm,-,N/A,,Mostly Cloudy,0,2014-01-06 15:15:00
8:35 AM,-4.0,-7.6,85,30.22,10.0,Calm,Calm,-,N/A,,Mostly Cloudy,0,2014-01-06 15:35:00
8:55 AM,-2.2,-5.8,85,30.22,10.0,Calm,Calm,-,N/A,,Mostly Cloudy,0,2014-01-06 15:55:00
9:15 AM,-2.2,-5.8,85,30.22,10.0,Calm,Calm,-,N/A,,Clear,0,2014-01-06 16:15:00
9:35 AM,-0.4,-2.2,92,30.21,10.0,Calm,Calm,-,N/A,,Clear,0,2014-01-06 16:35:00
9:55 AM,1.4,-2.2,85,30.21,10.0,Calm,Calm,-,N/A,,Clear,0,2014-01-06 16:55:00
10:15 AM,5.0,-0.4,78,30.19,10.0,Calm,Calm,-,N/A,,Clear,0,2014-01-06 17:15:00
10:35 AM,5.0,-0.4,78,30.21,10.0,North,4.6,-,N/A,,Scattered Clouds,360,2014-01-06 17:35:00
10:55 AM,6.8,1.4,79,30.18,10.0,Calm,Calm,-,N/A,,Scattered Clouds,0,2014-01-06 17:55:00
11:15 AM,8.6,1.4,73,30.14,10.0,Calm,Calm,-,N/A,,Clear,0,2014-01-06 18:15:00
11:35 AM,10.4,1.4,67,30.13,10.0,NNE,11.5,-,N/A,,Clear,30,2014-01-06 18:35:00
11:55 AM,8.6,1.4,73,30.13,10.0,NE,13.8,-,N/A,,Partly Cloudy,40,2014-01-06 18:55:00
12:15 PM,6.8,-0.4,72,30.13,10.0,NE,11.5,-,N/A,,Partly Cloudy,40,2014-01-06 19:15:00
12:35 PM,6.8,1.4,79,30.12,10.0,NNE,11.5,-,N/A,,Partly Cloudy,30,2014-01-06 19:35:00
12:55 PM,8.6,3.2,79,30.11,10.0,NNE,9.2,-,N/A,,Partly Cloudy,30,2014-01-06 19:55:00
1:15 PM,8.6,3.2,79,30.10,10.0,NE,8.1,-,N/A,,Clear,40,2014-01-06 20:15:00
1:55 PM,10.4,3.2,73,30.08,10.0,NNE,4.6,-,N/A,,Clear,30,2014-01-06 20:55:00
2:15 PM,10.4,5.0,79,30.08,10.0,North,3.5,-,N/A,,Clear,10,2014-01-06 21:15:00
2:35 PM,10.4,3.2,73,30.07,10.0,NNE,6.9,-,N/A,,Clear,30,2014-01-06 21:35:00
2:55 PM,10.4,5.0,79,30.06,10.0,NNE,5.8,-,N/A,,Clear,20,2014-01-06 21:55:00
3:15 PM,10.4,6.8,85,30.06,10.0,NNE,5.8,-,N/A,,Clear,30,2014-01-06 22:15:00
3:35 PM,10.4,3.2,73,30.06,10.0,North,5.8,-,N/A,,Clear,10,2014-01-06 22:35:00
3:55 PM,10.4,3.2,73,30.06,10.0,NE,9.2,-,N/A,,Clear,50,2014-01-06 22:55:00
4:35 PM,10.4,3.2,73,30.05,10.0,NNE,3.5,-,N/A,,Clear,30,2014-01-06 23:35:00
4:55 PM,10.4,3.2,73,30.04,10.0,North,8.1,-,N/A,,Clear,10,2014-01-06 23:55:00
5:15 PM,8.6,3.2,79,30.03,10.0,North,6.9,-,N/A,,Clear,10,2014-01-07 00:15:00
5:35 PM,8.6,3.2,79,30.03,10.0,NE,5.8,-,N/A,,Partly Cloudy,40,2014-01-07 00:35:00
5:55 PM,8.6,3.2,79,30.03,10.0,NE,9.2,-,N/A,,Partly Cloudy,40,2014-01-07 00:55:00
6:15 PM,8.6,1.4,73,30.03,10.0,NNE,5.8,-,N/A,,Partly Cloudy,30,2014-01-07 01:15:00
6:35 PM,8.6,3.2,79,30.03,10.0,NNE,6.9,-,N/A,,Scattered Clouds,30,2014-01-07 01:35:00
6:55 PM,8.6,1.4,73,30.02,10.0,NE,10.4,-,N/A,,Partly Cloudy,40,2014-01-07 01:55:00
7:15 PM,8.6,1.4,73,30.03,10.0,NE,9.2,-,N/A,,Clear,50,2014-01-07 02:15:00
7:35 PM,8.6,5.0,85,30.03,10.0,WSW,3.5,-,N/A,,Clear,250,2014-01-07 02:35:00
7:55 PM,6.8,1.4,79,30.04,10.0,NE,6.9,-,N/A,,Partly Cloudy,40,2014-01-07 02:55:00
8:15 PM,8.6,1.4,73,30.03,10.0,NNE,6.9,-,N/A,,Scattered Clouds,30,2014-01-07 03:15:00
8:35 PM,8.6,3.2,79,30.02,10.0,WNW,5.8,-,N/A,,Scattered Clouds,300,2014-01-07 03:35:00
8:55 PM,33.8,19.4,56,30.02,10.0,West,12.7,25.3,N/A,,Clear,270,2014-01-07 03:55:00
9:15 PM,37.4,12.2,36,30.02,10.0,WSW,15.0,29.9,N/A,,Clear,250,2014-01-07 04:15:00
9:35 PM,39.2,10.4,31,30.01,10.0,WSW,18.4,24.2,N/A,,Clear,240,2014-01-07 04:35:00
9:55 PM,39.2,12.2,33,30.00,10.0,WSW,12.7,20.7,N/A,,Clear,250,2014-01-07 04:55:00
10:15 PM,39.2,10.4,31,29.99,10.0,WSW,16.1,27.6,N/A,,Clear,250,2014-01-07 05:15:00
10:35 PM,39.2,12.2,33,29.99,10.0,NW,11.5,27.6,N/A,,Clear,320,2014-01-07 05:35:00
10:55 PM,35.6,10.4,35,29.97,10.0,NNW,9.2,23.0,N/A,,Clear,330,2014-01-07 05:55:00
11:15 PM,15.8,-0.4,49,29.98,10.0,NNE,6.9,-,N/A,,Mostly Cloudy,30,2014-01-07 06:15:00
11:35 PM,14.0,6.8,73,29.99,10.0,North,6.9,-,N/A,,Overcast,360,2014-01-07 06:35:00
11:55 PM,12.2,5.0,73,29.98,10.0,North,3.5,-,N/A,,Scattered Clouds,350,2014-01-07 06:55:00